Burnet, TX

1:17 PM CDT on July 22, 2017 (GMT -0500)
Burnet Municipal-Craddock

Weather History for KBMQ - November, 2011

Change the Weather History Date:

Saturday, November 12, 2011

  Actual Average Record
Temperature  
Mean Temperature 63 °F -  
Max Temperature 75 °F 65 °F 81 °F (1999)
Min Temperature 51 °F 47 °F 32 °F (2014)
Degree Days  
Heating Degree Days 2    
Growing Degree Days 13 (Base 50)    
Moisture  
Dew Point 50 °F    
Average Humidity 59    
Maximum Humidity 80    
Minimum Humidity 43    
Precipitation  
Precipitation 0.00 in - - ()
Sea Level Pressure  
Sea Level Pressure 29.96 in    
Wind  
Wind Speed 10 mph (South)    
Max Wind Speed 20 mph    
Max Gust Speed 32 mph    
Visibility 10 miles    
Events      
Averages and records for this station are not official NWS values.
T = Trace of Precipitation, MM = Missing Value Source: NWS Daily Summary

Daily Weather History Graph

Daily Weather History Graph

Search for Another Location

Airport or City:

Trip Planner

Search our weather history database for the weather conditions in past years. The results will help you decide how hot, cold, wet, or windy it might be!

Date:

Astronomy

Nov. 12, 2011 Rise Set
Actual Time 6:56 AM CST 5:37 PM CST
Civil Twilight 6:31 AM CST 6:02 PM CST
Nautical Twilight 6:02 AM CST 6:31 PM CST
Astronomical Twilight 5:33 AM CST 7:00 PM CST
Moon 7:01 PM CST (11/12) 8:33 AM CST (11/12)
Length of Visible Light 11h 31m
Length of Day
10h 40m
Full, 97% of the Moon is Illuminated
Nov 12
Full
Nov 18
Last Quarter
Nov 25
New
Dec 2
First Quarter
Dec 10
Full

Hourly Weather History & Observations

Time (CST) Temp. Dew Point Humidity Pressure Visibility Wind Dir Wind Speed Gust Speed Precip Events Conditions
12:53 AM 53.1 °F 33.1 °F 47% 30.03 in 10.0 mi South 8.1 mph - N/A   Clear
1:53 AM 55.0 °F 39.0 °F 55% 30.00 in 10.0 mi South 13.8 mph 20.7 mph N/A   Clear
2:53 AM 55.0 °F 39.9 °F 57% 29.99 in 10.0 mi South 10.4 mph - N/A   Clear
3:53 AM 54.0 °F 41.0 °F 62% 29.98 in 10.0 mi South 6.9 mph - N/A   Clear
4:53 AM 51.1 °F 41.0 °F 68% 30.00 in 10.0 mi Calm Calm - N/A   Clear
6:53 AM 57.0 °F 48.0 °F 72% 30.01 in 10.0 mi SSW 9.2 mph - N/A   Scattered Clouds
7:53 AM 59.0 °F 50.0 °F 72% 30.01 in 10.0 mi South 11.5 mph - N/A   Partly Cloudy
8:53 AM 61.0 °F 51.1 °F 70% 30.03 in 10.0 mi South 11.5 mph 19.6 mph N/A   Clear
9:53 AM 66.0 °F 51.1 °F 59% 30.02 in 10.0 mi SSW 13.8 mph 24.2 mph N/A   Clear
10:53 AM 69.1 °F 52.0 °F 54% 30.01 in 10.0 mi South 19.6 mph 32.2 mph N/A   Clear
11:53 AM 72.0 °F 53.1 °F 51% 29.98 in 10.0 mi SSW 17.3 mph 27.6 mph N/A   Clear
12:53 PM 73.9 °F 53.1 °F 48% 29.94 in 10.0 mi South 17.3 mph 26.5 mph N/A   Clear
1:53 PM 75.0 °F 52.0 °F 44% 29.91 in 10.0 mi South 17.3 mph 27.6 mph N/A   Clear
2:53 PM 75.0 °F 51.1 °F 43% 29.90 in 10.0 mi South 12.7 mph 21.9 mph N/A   Clear
3:53 PM 75.0 °F 51.1 °F 43% 29.90 in 10.0 mi South 13.8 mph 24.2 mph N/A   Clear
4:53 PM 73.9 °F 52.0 °F 46% 29.91 in 10.0 mi South 11.5 mph 21.9 mph N/A   Clear
5:53 PM 70.0 °F 53.1 °F 55% 29.92 in 10.0 mi South 4.6 mph - N/A   Clear
6:53 PM 69.1 °F 53.1 °F 57% 29.93 in 10.0 mi South 3.5 mph - N/A   Clear
7:53 PM 68.0 °F 53.1 °F 59% 29.93 in 10.0 mi South 5.8 mph - N/A   Clear
8:53 PM 68.0 °F 54.0 °F 61% 29.93 in 10.0 mi South 8.1 mph - N/A   Clear
9:53 PM 66.0 °F 55.0 °F 68% 29.94 in 10.0 mi South 9.2 mph - N/A   Clear
10:53 PM 64.9 °F 57.0 °F 75% 29.94 in 10.0 mi SSE 8.1 mph - N/A   Clear
11:53 PM 64.0 °F 57.9 °F 80% 29.92 in 10.0 mi South 9.2 mph - N/A   Clear